Martha's Vineyard, MA

2:15 AM EDT on September 26, 2017 (GMT -0400)
Martha's Vineyard

Weather History for KMVY - December, 2013

Change the Weather History Date:

Wednesday, December 4, 2013

  Actual Average Record
Temperature  
Mean Temperature 36 °F -  
Max Temperature 46 °F 46 °F 66 °F (1998)
Min Temperature 26 °F 30 °F 12 °F (1976)
Degree Days  
Heating Degree Days 29    
Moisture  
Dew Point 29 °F    
Average Humidity 76    
Maximum Humidity 93    
Minimum Humidity 48    
Precipitation  
Precipitation 0.00 in - - ()
Sea Level Pressure  
Sea Level Pressure 30.11 in    
Wind  
Wind Speed 5 mph (WNW)    
Max Wind Speed 12 mph    
Max Gust Speed 17 mph    
Visibility 9 miles    
Events      
Averages and records for this station are not official NWS values.
T = Trace of Precipitation, MM = Missing Value Source: NWS Daily Summary

Daily Weather History Graph

Daily Weather History Graph

Search for Another Location

Airport or City:

Trip Planner

Search our weather history database for the weather conditions in past years. The results will help you decide how hot, cold, wet, or windy it might be!

Date:

Astronomy

Dec. 04, 2013 Rise Set
Actual Time 6:52 AM EST 4:13 PM EST
Civil Twilight 6:21 AM EST 4:44 PM EST
Nautical Twilight 5:46 AM EST 5:18 PM EST
Astronomical Twilight 5:13 AM EST 5:51 PM EST
Moon 8:17 AM EST (12/4) 6:20 PM EST (12/4)
Length of Visible Light 10h 22m
Length of Day
9h 20m
Waxing Crescent, 4% of the Moon is Illuminated
Dec 4
Waxing Crescent
Dec 9
First Quarter
Dec 17
Full
Dec 25
Last Quarter
Jan 1
New

Hourly Weather History & Observations

Time (EST) Temp. Windchill Dew Point Humidity Pressure Visibility Wind Dir Wind Speed Gust Speed Precip Events Conditions
12:53 AM 37.9 °F 32.7 °F 32.0 °F 79% 29.97 in 10.0 mi NW 6.9 mph - N/A   Clear
1:53 AM 37.0 °F 32.4 °F 32.0 °F 82% 29.99 in 10.0 mi WNW 5.8 mph - N/A   Clear
2:53 AM 37.0 °F 32.4 °F 32.0 °F 82% 30.00 in 10.0 mi West 5.8 mph - N/A   Clear
3:53 AM 32.0 °F 28.7 °F 30.0 °F 92% 30.00 in 10.0 mi West 3.5 mph - N/A   Clear
4:53 AM 36.0 °F 32.1 °F 32.0 °F 86% 30.01 in 10.0 mi West 4.6 mph - N/A   Clear
5:53 AM 35.1 °F 30.1 °F 32.0 °F 89% 30.03 in 10.0 mi West 5.8 mph - N/A   Clear
6:53 AM 36.0 °F 31.1 °F 30.9 °F 82% 30.06 in 10.0 mi West 5.8 mph - N/A   Clear
7:53 AM 37.9 °F 35.5 °F 32.0 °F 79% 30.09 in 10.0 mi WNW 3.5 mph - N/A   Clear
8:53 AM 42.1 °F 35.7 °F 30.9 °F 65% 30.11 in 10.0 mi NW 11.5 mph 17.3 mph N/A   Clear
9:53 AM 41.0 °F 34.7 °F 30.0 °F 65% 30.12 in 10.0 mi NW 10.4 mph - N/A   Clear
10:53 AM 43.0 °F 38.8 °F 30.0 °F 60% 30.10 in 10.0 mi NW 6.9 mph - N/A   Clear
11:53 AM 44.1 °F 39.5 °F 28.0 °F 53% 30.09 in 10.0 mi NW 8.1 mph - N/A   Clear
12:53 PM 46.9 °F - 28.0 °F 48% 30.09 in 10.0 mi NW 5.8 mph - N/A   Clear
1:53 PM 46.9 °F - 28.0 °F 48% 30.10 in 10.0 mi NW 5.8 mph - N/A   Clear
2:53 PM 45.0 °F 42.6 °F 30.9 °F 58% 30.12 in 10.0 mi West 4.6 mph - N/A   Clear
3:53 PM 43.0 °F - 30.9 °F 62% 30.13 in 10.0 mi Calm Calm - N/A   Clear
4:53 PM 36.0 °F - 30.0 °F 79% 30.15 in 10.0 mi Calm Calm - N/A   Clear
5:53 PM 34.0 °F - 28.0 °F 79% 30.15 in 10.0 mi Calm Calm - N/A   Clear
6:53 PM 30.0 °F - 26.1 °F 85% 30.18 in 10.0 mi Calm Calm - N/A   Clear
7:53 PM 30.0 °F - 26.1 °F 85% 30.18 in 10.0 mi Calm Calm - N/A   Clear
8:53 PM 28.0 °F - 24.1 °F 85% 30.18 in 10.0 mi Calm Calm - N/A   Clear
9:53 PM 28.0 °F 24.2 °F 24.1 °F 85% 30.19 in 10.0 mi ENE 3.5 mph - N/A   Clear
10:53 PM 26.1 °F - 24.1 °F 92% 30.21 in 8.0 mi Calm Calm - N/A   Clear
11:45 PM 26.6 °F - 24.8 °F 93% 30.21 in 2.5 mi Calm Calm - N/A   Clear
11:53 PM 26.1 °F - 23.0 °F 88% 30.21 in 4.0 mi Calm Calm - N/A   Clear